Home > Products > Valid Products > MTR

000
SAUS44 KLIX 302155 COR
MTRBVE
METAR KBVE 302151Z AUTO 08005KT 10SM CLR 31/19 A3001 RMK AO2 SLP162
T03060194





000
SAUS44 KLIX 302155 COR
MTRBVE
METAR KBVE 302151Z AUTO 08005KT 10SM CLR 31/19 A3001 RMK AO2 SLP162
T03060194





000
SAUS44 KLIX 302153 COR
MTRBVE
METAR KBVE 302151Z AUTO 08005KT 10SM CLR 31/19 A3001 RMK AO2 SLP162
T03060194





000
SAUS44 KLIX 302153 COR
MTRBVE
METAR KBVE 302151Z AUTO 08005KT 10SM CLR 31/19 A3001 RMK AO2 SLP162
T03060194





000
SAUS44 KLIX 302053
MTRBVE
METAR KBVE 302051Z AUTO 08006KT 10SM CLR 31/19 A3003 RMK AO2 SLP168
T03110189 58012





000
SAUS44 KLIX 302053
MTRBVE
METAR KBVE 302051Z AUTO 08006KT 10SM CLR 31/19 A3003 RMK AO2 SLP168
T03110189 58012





000
SAUS44 KLIX 301952
MTRBVE
METAR KBVE 301951Z AUTO 08004KT 10SM CLR 31/18 A3005 RMK AO2 SLP174
T03110183





000
SAUS44 KLIX 301952
MTRBVE
METAR KBVE 301951Z AUTO 08004KT 10SM CLR 31/18 A3005 RMK AO2 SLP174
T03110183





000
SAUS44 KLIX 301853
MTRBVE
METAR KBVE 301851Z AUTO 07005KT 10SM CLR 31/19 A3005 RMK AO2 SLP176
T03060194





000
SAUS44 KLIX 301759 COR
MTRBVE
METAR KBVE 301751Z AUTO 04005KT 10SM CLR 31/19 A3006 RMK AO2 SLP180
T03110194 10317 20250 50001





000
SAUS44 KLIX 301759 COR
MTRBVE
METAR KBVE 301751Z AUTO 04005KT 10SM CLR 31/19 A3006 RMK AO2 SLP180
T03110194 10317 20250 50001





000
SAUS44 KLIX 301757 COR
MTRBVE
METAR KBVE 301751Z AUTO 04005KT 10SM CLR 31/19 A3006 RMK AO2 SLP180
T03110194 10317 20250 50001





000
SAUS44 KLIX 301757 COR
MTRBVE
METAR KBVE 301751Z AUTO 04005KT 10SM CLR 31/19 A3006 RMK AO2 SLP180
T03110194 10317 20250 50001





000
SAUS44 KLIX 301756 COR
MTRBVE
METAR KBVE 301751Z AUTO 04005KT 10SM CLR 31/19 A3006 RMK AO2 SLP180
T03110194 10317 20250 50001





000
SAUS44 KLIX 301756 COR
MTRBVE
METAR KBVE 301751Z AUTO 04005KT 10SM CLR 31/19 A3006 RMK AO2 SLP180
T03110194 10317 20250 50001





000
SAUS44 KLIX 301753 COR
MTRBVE
METAR KBVE 301751Z AUTO 04005KT 10SM CLR 31/19 A3006 RMK AO2 SLP180
T03110194 10317 20250 50001





000
SAUS44 KLIX 301753 COR
MTRBVE
METAR KBVE 301751Z AUTO 04005KT 10SM CLR 31/19 A3006 RMK AO2 SLP180
T03110194 10317 20250 50001





000
SAUS44 KLIX 301652
MTRBVE
METAR KBVE 301651Z AUTO VRB04KT 10SM CLR 31/19 A3007 RMK AO2 SLP183
T03060194





000
SAUS44 KLIX 301552
MTRBVE
METAR KBVE 301551Z AUTO 06005KT 10SM CLR 30/19 A3008 RMK AO2 SLP184
T03000194





000
SAUS44 KLIX 301452
MTRBVE
METAR KBVE 301451Z AUTO 06004KT 10SM CLR 29/21 A3006 RMK AO2 SLP180
T02940206 51012





000
SAUS44 KLIX 301352
MTRBVE
METAR KBVE 301351Z AUTO 00000KT 10SM CLR 29/22 A3005 RMK AO2 SLP176
T02890217





000
SAUS44 KLIX 301252
MTRBVE
METAR KBVE 301251Z AUTO 00000KT 10SM CLR 27/22 A3005 RMK AO2 SLP174
T02720222





000
SAUS44 KLIX 301152
MTRBVE
METAR KBVE 301151Z AUTO 00000KT 10SM CLR 25/22 A3003 RMK AO2 SLP168
T02500217 10267 20244 51010





000
SAUS44 KLIX 301152
MTRBVE
METAR KBVE 301151Z AUTO 00000KT 10SM CLR 25/22 A3003 RMK AO2 SLP168
T02500217 10267 20244 51010





000
SAUS44 KLIX 301056 COR
MTRBVE
METAR KBVE 301051Z AUTO 00000KT 10SM CLR 26/21 A3002 RMK AO2 SLP165
T02560211





000
SAUS44 KLIX 301056 COR
MTRBVE
METAR KBVE 301051Z AUTO 00000KT 10SM CLR 26/21 A3002 RMK AO2 SLP165
T02560211





000
SAUS44 KLIX 301053 COR
MTRBVE
METAR KBVE 301051Z AUTO 00000KT 10SM CLR 26/21 A3002 RMK AO2 SLP165
T02560211





000
SAUS44 KLIX 301052
MTRBVE
METAR KBVE 301051Z AUTO 00000KT 10SM CLR 26/21 A3002 RMK AO2 SLP165
T02560211





000
SAUS44 KLIX 300952
MTRBVE
METAR KBVE 300951Z AUTO 00000KT 10SM FEW045 26/21 A3001 RMK AO2
SLP162 T02560206





000
SAUS44 KLIX 300853
MTRBVE
METAR KBVE 300851Z AUTO 00000KT 10SM CLR 26/22 A3000 RMK AO2 SLP158
T02560217 58009





000
SAUS44 KLIX 300753
MTRBVE
METAR KBVE 300751Z AUTO 00000KT 10SM BKN041 26/22 A3000 RMK AO2
SLP159 T02610217





000
SAUS44 KLIX 300652
MTRBVE
METAR KBVE 300651Z AUTO 00000KT 10SM CLR 26/22 A3003 RMK AO2 SLP167
T02610222





000
SAUS44 KLIX 300552
MTRBVE
METAR KBVE 300551Z AUTO 00000KT 10SM CLR 26/22 A3003 RMK AO2 SLP167
T02610222 10289 20261 403220250 58001





000
SAUS44 KLIX 300552
MTRBVE
METAR KBVE 300551Z AUTO 00000KT 10SM CLR 26/22 A3003 RMK AO2 SLP167
T02610222 10289 20261 403220250 58001





000
SAUS44 KLIX 300453
MTRBVE
METAR KBVE 300451Z AUTO 00000KT 10SM CLR 27/21 A3004 RMK AO2 SLP173
T02670206





000
SAUS44 KLIX 300353
MTRBVE
METAR KBVE 300351Z AUTO 00000KT 10SM CLR 27/21 A3004 RMK AO2 SLP171
T02670211





000
SAUS44 KLIX 300253
MTRBVE
METAR KBVE 300251Z AUTO 00000KT 10SM CLR 27/21 A3003 RMK AO2 SLP168
T02670211 53007





000
SAUS44 KLIX 300156 COR
MTRBVE
METAR KBVE 300151Z AUTO 14003KT 10SM CLR 27/21 A3002 RMK AO2 SLP165
T02670211





000
SAUS44 KLIX 300153 COR
MTRBVE
METAR KBVE 300151Z AUTO 14003KT 10SM CLR 27/21 A3002 RMK AO2 SLP165
T02670211





000
SAUS44 KLIX 300052
MTRBVE
METAR KBVE 300051Z AUTO 20003KT 10SM CLR 27/19 A3001 RMK AO2 SLP160
T02720189





000
SAUS44 KLIX 292352
MTRBVE
METAR KBVE 292351Z AUTO 19003KT 10SM CLR 29/19 A3001 RMK AO2 SLP161
T02890194 10322 20289 55008





000
SAUS44 KLIX 292352
MTRBVE
METAR KBVE 292351Z AUTO 19003KT 10SM CLR 29/19 A3001 RMK AO2 SLP161
T02890194 10322 20289 55008





000
SAUS44 KLIX 292252
MTRBVE
METAR KBVE 292251Z AUTO 17004KT 10SM CLR 30/19 A3000 RMK AO2 SLP160
T03000189





000
SAUS44 KLIX 292252
MTRBVE
METAR KBVE 292251Z AUTO 17004KT 10SM CLR 30/19 A3000 RMK AO2 SLP160
T03000189





000
SAUS44 KLIX 292153
MTRBVE
METAR KBVE 292151Z AUTO 20006KT 10SM CLR 30/19 A3001 RMK AO2 SLP161
T03000189





000
SAUS44 KLIX 292052
MTRBVE
METAR KBVE 292051Z AUTO 00000KT 10SM BKN045 32/19 A3003 RMK AO2
SLP169 T03170194 58014





000
SAUS44 KLIX 291952
MTRBVE
METAR KBVE 291951Z AUTO VRB03KT 10SM CLR 31/18 A3005 RMK AO2 SLP174
T03110178





000
SAUS44 KLIX 291855 COR
MTRBVE
METAR KBVE 291851Z AUTO 21006KT 10SM CLR 31/17 A3007 RMK AO2 SLP181
T03060172





000
SAUS44 KLIX 291855 COR
MTRBVE
METAR KBVE 291851Z AUTO 21006KT 10SM CLR 31/17 A3007 RMK AO2 SLP181
T03060172





000
SAUS44 KLIX 291853 COR
MTRBVE
METAR KBVE 291851Z AUTO 21006KT 10SM CLR 31/17 A3007 RMK AO2 SLP181
T03060172





000
SAUS44 KLIX 291752
MTRBVE
METAR KBVE 291751Z AUTO 22007KT 10SM CLR 30/17 A3007 RMK AO2 SLP183
T03000167 10306 20250 58002





000
SAUS44 KLIX 291752
MTRBVE
METAR KBVE 291751Z AUTO 22007KT 10SM CLR 30/17 A3007 RMK AO2 SLP183
T03000167 10306 20250 58002





000
SAUS44 KLIX 291652
MTRBVE
METAR KBVE 291651Z AUTO 19004KT 10SM CLR 31/17 A3009 RMK AO2 SLP189
T03060172





000
SAUS44 KLIX 291552
MTRBVE
METAR KBVE 291551Z AUTO 19006KT 10SM CLR 29/16 A3009 RMK AO2 SLP188
T02940161





000
SAUS44 KLIX 291453
MTRBVE
METAR KBVE 291451Z AUTO 00000KT 10SM CLR 29/16 A3008 RMK AO2 SLP185
T02890161 51016





000
SAUS44 KLIX 291453
MTRBVE
METAR KBVE 291451Z AUTO 00000KT 10SM CLR 29/16 A3008 RMK AO2 SLP185
T02890161 51016





000
SAUS44 KLIX 291352 COR
MTRBVE
METAR KBVE 291351Z AUTO 19005KT 10SM CLR 28/18 A3008 RMK AO2 SLP184
T02830178





000
SAUS44 KLIX 291352 COR
MTRBVE
METAR KBVE 291351Z AUTO 19005KT 10SM CLR 28/18 A3008 RMK AO2 SLP184
T02830178





000
SAUS44 KLIX 291252
MTRBVE
METAR KBVE 291251Z AUTO 00000KT 10SM CLR 27/21 A3006 RMK AO2 SLP178
T02720211





000
SAUS44 KLIX 291156 COR
MTRBVE
METAR KBVE 291151Z AUTO 13003KT 10SM CLR 25/19 A3003 RMK AO2 SLP170
T02500194 10267 20250 53009





000
SAUS44 KLIX 291156 COR
MTRBVE
METAR KBVE 291151Z AUTO 13003KT 10SM CLR 25/19 A3003 RMK AO2 SLP170
T02500194 10267 20250 53009





000
SAUS44 KLIX 291154 COR
MTRBVE
METAR KBVE 291151Z AUTO 13003KT 10SM CLR 25/19 A3003 RMK AO2 SLP170
T02500194 10267 20250 53009





000
SAUS44 KLIX 291154 COR
MTRBVE
METAR KBVE 291151Z AUTO 13003KT 10SM CLR 25/19 A3003 RMK AO2 SLP170
T02500194 10267 20250 53009





000
SAUS44 KLIX 291056 COR
MTRBVE
METAR KBVE 291051Z AUTO 21004KT 10SM CLR 26/19 A3002 RMK AO2 SLP163
T02610189





000
SAUS44 KLIX 291053 COR
MTRBVE
METAR KBVE 291051Z AUTO 21004KT 10SM CLR 26/19 A3002 RMK AO2 SLP163
T02610189





000
SAUS44 KLIX 291053 COR
MTRBVE
METAR KBVE 291051Z AUTO 21004KT 10SM CLR 26/19 A3002 RMK AO2 SLP163
T02610189





000
SAUS44 KLIX 290956 COR
MTRBVE
METAR KBVE 290951Z AUTO 19005KT 10SM CLR 26/19 A3001 RMK AO2 SLP160
T02610194





000
SAUS44 KLIX 290953 COR
MTRBVE
METAR KBVE 290951Z AUTO 19005KT 10SM CLR 26/19 A3001 RMK AO2 SLP160
T02610194





000
SAUS44 KLIX 290953 COR
MTRBVE
METAR KBVE 290951Z AUTO 19005KT 10SM CLR 26/19 A3001 RMK AO2 SLP160
T02610194





000
SAUS44 KLIX 290852
MTRBVE
METAR KBVE 290851Z AUTO 19005KT 10SM CLR 26/19 A3001 RMK AO2 SLP161
T02610194 56008





000
SAUS44 KLIX 290752
MTRBVE
METAR KBVE 290751Z AUTO 19005KT 10SM CLR 26/19 A3001 RMK AO2 SLP163
T02610194





000
SAUS44 KLIX 290652
MTRBVE
METAR KBVE 290651Z AUTO 14004KT 10SM CLR 26/19 A3002 RMK AO2 SLP166
T02560189





000
SAUS44 KLIX 290553 COR
MTRBVE
METAR KBVE 290551Z AUTO 13004KT 10SM CLR 26/19 A3003 RMK AO2 SLP169
T02560194 10278 20256 403170233 51001





000
SAUS44 KLIX 290553 COR
MTRBVE
METAR KBVE 290551Z AUTO 13004KT 10SM CLR 26/19 A3003 RMK AO2 SLP169
T02560194 10278 20256 403170233 51001





000
SAUS44 KLIX 290452
MTRBVE
METAR KBVE 290451Z AUTO 14004KT 10SM CLR 26/21 A3003 RMK AO2 SLP168
T02560206





000
SAUS44 KLIX 290352
MTRBVE
METAR KBVE 290351Z AUTO 14003KT 10SM CLR 26/21 A3004 RMK AO2 SLP171
T02560206





000
SAUS44 KLIX 290252
MTRBVE
METAR KBVE 290251Z AUTO 14005KT 10SM CLR 26/20 A3003 RMK AO2 SLP167
T02610200 53020





000
SAUS44 KLIX 290153 COR
MTRBVE
METAR KBVE 290151Z AUTO 13004KT 10SM CLR 27/21 A3001 RMK AO2 SLP160
T02670211





000
SAUS44 KLIX 290052
MTRBVE
METAR KBVE 290051Z AUTO 13005KT 10SM SCT043 27/21 A2999 RMK AO2
SLP154 T02720206





000
SAUS44 KLIX 290052
MTRBVE
METAR KBVE 290051Z AUTO 13005KT 10SM SCT043 27/21 A2999 RMK AO2
SLP154 T02720206





000
SAUS44 KLIX 282352
MTRBVE
METAR KBVE 282351Z AUTO 13008KT 10SM CLR 28/21 A2997 RMK AO2 SLP148
T02780206 10317 20278 53008





000
SAUS44 KLIX 282352
MTRBVE
METAR KBVE 282351Z AUTO 13008KT 10SM CLR 28/21 A2997 RMK AO2 SLP148
T02780206 10317 20278 53008





000
SAUS44 KLIX 282252
MTRBVE
METAR KBVE 282251Z AUTO 11011KT 10SM SCT034 SCT042 28/21 A2996 RMK
AO2 SLP145 T02830211





000
SAUS44 KLIX 282252
MTRBVE
METAR KBVE 282251Z AUTO 11011KT 10SM SCT034 SCT042 28/21 A2996 RMK
AO2 SLP145 T02830211





000
SAUS44 KLIX 282152
MTRBVE
METAR KBVE 282151Z AUTO 10011KT 10SM FEW032 29/21 A2995 RMK AO2
SLP141 T02890211





000
SAUS44 KLIX 282053
MTRBVE
METAR KBVE 282051Z AUTO 08007KT 10SM FEW036 SCT047 31/21 A2995 RMK
AO2 SLP140 T03110211 58016





000
SAUS44 KLIX 281956 COR
MTRBVE
METAR KBVE 281951Z AUTO 35005KT 10SM CLR 31/22 A2996 RMK AO2 SLP144
T03110217





000
SAUS44 KLIX 281953 COR
MTRBVE
METAR KBVE 281951Z AUTO 35005KT 10SM CLR 31/22 A2996 RMK AO2 SLP144
T03110217





000
SAUS44 KLIX 281953 COR
MTRBVE
METAR KBVE 281951Z AUTO 35005KT 10SM CLR 31/22 A2996 RMK AO2 SLP144
T03110217





000
SAUS44 KLIX 281853
MTRBVE
METAR KBVE 281851Z AUTO VRB05KT 10SM CLR 31/19 A2998 RMK AO2 SLP152
T03110194





000
SAUS44 KLIX 281853
MTRBVE
METAR KBVE 281851Z AUTO VRB05KT 10SM CLR 31/19 A2998 RMK AO2 SLP152
T03110194





000
SAUS44 KLIX 281752
MTRBVE
METAR KBVE 281751Z AUTO VRB05KT 10SM CLR 31/21 A2999 RMK AO2 SLP156
T03110206 10317 20267 58002





000
SAUS44 KLIX 281656 COR
MTRBVE
METAR KBVE 281651Z AUTO VRB04KT 10SM CLR 32/17 A3001 RMK AO2 SLP161
T03170172





000
SAUS44 KLIX 281656 COR
MTRBVE
METAR KBVE 281651Z AUTO VRB04KT 10SM CLR 32/17 A3001 RMK AO2 SLP161
T03170172





000
SAUS44 KLIX 281654 COR
MTRBVE
METAR KBVE 281651Z AUTO VRB04KT 10SM CLR 32/17 A3001 RMK AO2 SLP161
T03170172





000
SAUS44 KLIX 281653 COR
MTRBVE
METAR KBVE 281651Z AUTO VRB04KT 10SM CLR 32/17 A3001 RMK AO2 SLP161
T03170172





000
SAUS44 KLIX 281652
MTRBVE
METAR KBVE 281651Z AUTO VRB04KT 10SM CLR 32/17 A3001 RMK AO2 SLP161
T03170172





000
SAUS44 KLIX 281558 COR
MTRBVE
METAR KBVE 281551Z AUTO 07005KT 10SM CLR 30/19 A3001 RMK AO2 SLP163
T03000194





000
SAUS44 KLIX 281557 COR
MTRBVE
METAR KBVE 281551Z AUTO 07005KT 10SM CLR 30/19 A3001 RMK AO2 SLP163
T03000194





000
SAUS44 KLIX 281556
MTRBVE
METAR KBVE 281551Z AUTO 07005KT 10SM CLR 30/19 A3001 RMK AO2 SLP163
T03000194





000
SAUS44 KLIX 281556
MTRBVE
METAR KBVE 281551Z AUTO 07005KT 10SM CLR 30/19 A3001 RMK AO2 SLP163
T03000194





000
SAUS44 KLIX 281452
MTRBVE
METAR KBVE 281451Z AUTO VRB04KT 10SM CLR 29/23 A3000 RMK AO2 SLP158
T02940233 51015





000
SAUS44 KLIX 281452
MTRBVE
METAR KBVE 281451Z AUTO VRB04KT 10SM CLR 29/23 A3000 RMK AO2 SLP158
T02940233 51015





000
SAUS44 KLIX 281352
MTRBVE
METAR KBVE 281351Z AUTO VRB04KT 10SM CLR 28/23 A2999 RMK AO2 SLP155
T02830228





000
SAUS44 KLIX 281253
MTRBVE
METAR KBVE 281251Z AUTO 01004KT 10SM CLR 28/22 A2998 RMK AO2 SLP150
T02780217





000
SAUS44 KLIX 281155 COR
MTRBVE
METAR KBVE 281151Z AUTO VRB05KT 10SM CLR 27/21 A2995 RMK AO2 SLP143
T02670206 10272 20233 51008





000
SAUS44 KLIX 281155 COR
MTRBVE
METAR KBVE 281151Z AUTO VRB05KT 10SM CLR 27/21 A2995 RMK AO2 SLP143
T02670206 10272 20233 51008





000
SAUS44 KLIX 281153 COR
MTRBVE
METAR KBVE 281151Z AUTO VRB05KT 10SM CLR 27/21 A2995 RMK AO2 SLP143
T02670206 10272 20233 51008





000
SAUS44 KLIX 281153 COR
MTRBVE
METAR KBVE 281151Z AUTO VRB05KT 10SM CLR 27/21 A2995 RMK AO2 SLP143
T02670206 10272 20233 51008





000
SAUS44 KLIX 281058 COR
MTRBVE
METAR KBVE 281051Z AUTO 36005KT 10SM BKN055 27/21 A2995 RMK AO2
SLP141 T02670206





000
SAUS44 KLIX 281058 COR
MTRBVE
METAR KBVE 281051Z AUTO 36005KT 10SM BKN055 27/21 A2995 RMK AO2
SLP141 T02670206





000
SAUS44 KLIX 281057 COR
MTRBVE
METAR KBVE 281051Z AUTO 36005KT 10SM BKN055 27/21 A2995 RMK AO2
SLP141 T02670206





000
SAUS44 KLIX 281053 COR
MTRBVE
METAR KBVE 281051Z AUTO 36005KT 10SM BKN055 27/21 A2995 RMK AO2
SLP141 T02670206





000
SAUS44 KLIX 281053 COR
MTRBVE
METAR KBVE 281051Z AUTO 36005KT 10SM BKN055 27/21 A2995 RMK AO2
SLP141 T02670206





000
SAUS44 KLIX 280956 COR
MTRBVE
METAR KBVE 280951Z AUTO 01004KT 10SM FEW050 27/21 A2994 RMK AO2
SLP137 T02720206





000
SAUS44 KLIX 280953 COR
MTRBVE
METAR KBVE 280951Z AUTO 01004KT 10SM FEW050 27/21 A2994 RMK AO2
SLP137 T02720206





000
SAUS44 KLIX 280852
MTRBVE
METAR KBVE 280851Z AUTO 04005KT 10SM CLR 27/21 A2993 RMK AO2 SLP134
T02720206 58012





000
SAUS44 KLIX 280752
MTRBVE
METAR KBVE 280751Z AUTO 00000KT 10SM CLR 24/21 A2994 RMK AO2 SLP139
T02390206





000
SAUS44 KLIX 280656 COR
MTRBVE
METAR KBVE 280651Z AUTO 29004KT 10SM CLR 24/19 A2996 RMK AO2 SLP144
T02390194





000
SAUS44 KLIX 280656 COR
MTRBVE
METAR KBVE 280651Z AUTO 29004KT 10SM CLR 24/19 A2996 RMK AO2 SLP144
T02390194





000
SAUS44 KLIX 280653 COR
MTRBVE
METAR KBVE 280651Z AUTO 29004KT 10SM CLR 24/19 A2996 RMK AO2 SLP144
T02390194





000
SAUS44 KLIX 280653 COR
MTRBVE
METAR KBVE 280651Z AUTO 29004KT 10SM CLR 24/19 A2996 RMK AO2 SLP144
T02390194





000
SAUS44 KLIX 280556 COR
MTRBVE
METAR KBVE 280551Z AUTO 29004KT 10SM CLR 23/19 A2997 RMK AO2 SLP146
T02330194 10283 20233 402940233 58006





000
SAUS44 KLIX 280556 COR
MTRBVE
METAR KBVE 280551Z AUTO 29004KT 10SM CLR 23/19 A2997 RMK AO2 SLP146
T02330194 10283 20233 402940233 58006





000
SAUS44 KLIX 280553 COR
MTRBVE
METAR KBVE 280551Z AUTO 29004KT 10SM CLR 23/19 A2997 RMK AO2 SLP146
T02330194 10283 20233 402940233 58006





000
SAUS44 KLIX 280456 COR
MTRBVE
METAR KBVE 280451Z AUTO 29004KT 10SM CLR 24/19 A2997 RMK AO2 SLP149
T02390194





000
SAUS44 KLIX 280453 COR
MTRBVE
METAR KBVE 280451Z AUTO 29004KT 10SM CLR 24/19 A2997 RMK AO2 SLP149
T02390194





000
SAUS44 KLIX 280452
MTRBVE
METAR KBVE 280451Z AUTO 29004KT 10SM CLR 24/19 A2997 RMK AO2 SLP149
T02390194





000
SAUS44 KLIX 280452
MTRBVE
METAR KBVE 280451Z AUTO 29004KT 10SM CLR 24/19 A2997 RMK AO2 SLP149
T02390194





000
SAUS44 KLIX 280353
MTRBVE
METAR KBVE 280351Z AUTO 28004KT 10SM CLR 24/20 A2999 RMK AO2 SLP154
T02390200





000
SAUS44 KLIX 280252
MTRBVE
METAR KBVE 280251Z AUTO 00000KT 10SM CLR 26/19 A2998 RMK AO2 SLP152
T02560189 51009





000
SAUS44 KLIX 280252
MTRBVE
METAR KBVE 280251Z AUTO 00000KT 10SM CLR 26/19 A2998 RMK AO2 SLP152
T02560189 51009





000
SAUS44 KLIX 280152
MTRBVE
METAR KBVE 280151Z AUTO 00000KT 10SM CLR 26/19 A2998 RMK AO2 SLP152
T02560194





000
SAUS44 KLIX 280152
MTRBVE
METAR KBVE 280151Z AUTO 00000KT 10SM CLR 26/19 A2998 RMK AO2 SLP152
T02560194





000
SAUS44 KLIX 280056 COR
MTRBVE
METAR KBVE 280051Z AUTO 00000KT 10SM CLR 27/18 A2997 RMK AO2 SLP147
T02670183





000
SAUS44 KLIX 280056 COR
MTRBVE
METAR KBVE 280051Z AUTO 00000KT 10SM CLR 27/18 A2997 RMK AO2 SLP147
T02670183





000
SAUS44 KLIX 280053 COR
MTRBVE
METAR KBVE 280051Z AUTO 00000KT 10SM CLR 27/18 A2997 RMK AO2 SLP147
T02670183





000
SAUS44 KLIX 280053 COR
MTRBVE
METAR KBVE 280051Z AUTO 00000KT 10SM CLR 27/18 A2997 RMK AO2 SLP147
T02670183





000
SAUS44 KLIX 272352
MTRBVE
METAR KBVE 272351Z AUTO VRB03KT 10SM CLR 28/17 A2995 RMK AO2 SLP143
T02830172 10294 20278 58006





000
SAUS44 KLIX 272252
MTRBVE
METAR KBVE 272251Z AUTO 03006KT 10SM CLR 29/16 A2996 RMK AO2 SLP145
T02890161





    US Dept of Commerce
    National Oceanic and Atmospheric Administration
    National Weather Service
    1325 East West Highway
    Silver Spring, MD 20910
    Page Author: NWS Internet Services Team
Disclaimer
Information Quality
Credits
Glossary
Privacy Policy
Freedom of Information Act (FOIA)
About Us
Career Opportunities